This is the latest recevied weather packets stored in our database for station/object OK1FRN-6. If no packets are shown the sender has not sent any weather packets the latest 10 day(s).
| Time | Temp. | Humidity | Pressure | Rain* | Wind** | Luminosity | Snow |
|---|---|---|---|---|---|---|---|
| 1777819537 | 28.33° C | 19% | 1013.3 hPa | - | - | - | - |
| 1777818614 | 28.33° C | 19% | 1013.5 hPa | - | - | - | - |
| 1777817999 | 28.89° C | 19% | 1013.6 hPa | - | - | - | - |
| 1777817384 | 28.89° C | 20% | 1013.7 hPa | - | - | - | - |
| 1777817076 | 28.89° C | 19% | 1013.8 hPa | - | - | - | - |
| 1777815538 | 28.89° C | 18% | 1014.2 hPa | - | - | - | - |
| 1777814308 | 28.89° C | 18% | 1014.5 hPa | - | - | - | - |
| 1777813385 | 29.44° C | 18% | 1014.8 hPa | - | - | - | - |
| 1777812462 | 29.44° C | 19% | 1015 hPa | - | - | - | - |
| 1777811847 | 28.89° C | 20% | 1015.1 hPa | - | - | - | - |
| 1777811539 | 28.89° C | 19% | 1015.1 hPa | - | - | - | - |
| 1777810924 | 28.89° C | 21% | 1015.2 hPa | - | - | - | - |
| 1777810616 | 28.89° C | 19% | 1015.3 hPa | - | - | - | - |
| 1777810309 | 28.89° C | 19% | 1015.4 hPa | - | - | - | - |
| 1777810001 | 28.89° C | 21% | 1015.3 hPa | - | - | - | - |
| 1777809694 | 28.89° C | 21% | 1015.4 hPa | - | - | - | - |
| 1777809386 | 28.89° C | 21% | 1015.5 hPa | - | - | - | - |
| 1777808771 | 29.44° C | 21% | 1015.7 hPa | - | - | - | - |
| 1777805695 | 28.89° C | 21% | 1016.3 hPa | - | - | - | - |
| 1777804772 | 28.33° C | 19% | 1016.5 hPa | - | - | - | - |
| 1777802927 | 28.33° C | 20% | 1016.8 hPa | - | - | - | - |
| 1777802312 | 28.33° C | 22% | 1016.9 hPa | - | - | - | - |
| 1777801697 | 27.78° C | 24% | 1017.1 hPa | - | - | - | - |
| 1777801082 | 27.22° C | 23% | 1017.1 hPa | - | - | - | - |
| 1777800775 | 26.67° C | 22% | 1017.2 hPa | - | - | - | - |
* Rain since midnight (hover to see other rain measurements)
** Current wind speed in m/s (hover to see current wind gust speed)